FW6835 Weather Reports


Display with metric or nautical units.
time (UTC)temp
F
wind
direction
speed
MPH
gust
MPH
rain 1hr
in
rain 24hr
in
rain mn
in
humidity
%
barometer
mb
20260506134528 65 145 4.0 11.0 0.00 0.27 0.22 64 1006.1
20260506134029 66 191 2.0 10.0 0.00 0.27 0.22 64 1006.2
20260506133527 66 248 4.0 10.0 0.00 0.27 0.22 65 1006.1
20260506133027 66 252 4.0 10.0 0.00 0.27 0.22 66 1006.3
20260506132530 65 164 3.0 9.0 0.00 0.27 0.22 67 1006.3
20260506132026 65 252 4.0 12.0 0.00 0.27 0.22 67 1006.3
20260506131526 65 279 6.0 13.0 0.00 0.27 0.22 65 1006.3
20260506131024 65 240 2.0 9.0 0.00 0.27 0.22 71 1006.3
20260506130528 65 292 4.0 9.0 0.00 0.27 0.22 68 1006.4
20260506130023 64 173 4.0 9.0 0.00 0.27 0.22 72 1006.4
20260506125523 64 151 3.0 9.0 0.00 0.27 0.22 69 1006.3
20260506125023 65 242 3.0 9.0 0.00 0.27 0.22 70 1006.4
20260506124522 65 175 3.0 9.0 0.00 0.27 0.22 71 1006.4
20260506124021 64 194 3.0 10.0 0.00 0.27 0.22 70 1006.4
20260506123521 64 219 3.0 10.0 0.00 0.27 0.22 73 1006.5
20260506123021 64 186 3.0 10.0 0.00 0.27 0.22 72 1006.4
20260506122520 64 178 4.0 7.0 0.00 0.27 0.22 70 1006.5
20260506122019 64 201 2.0 9.0 0.00 0.27 0.22 74 1006.6
20260506121519 63 178 5.0 10.0 0.00 0.27 0.22 72 1006.5
20260506121019 64 220 4.0 7.0 0.00 0.27 0.22 73 1006.5
20260506120519 63 203 3.0 9.0 0.00 0.27 0.22 73 1006.5
20260506120034 63 184 3.0 11.0 0.00 0.27 0.22 70 1006.5
20260506115521 63 267 3.0 11.0 0.00 0.27 0.22 73 1006.5
20260506115017 64 207 3.0 9.0 0.00 0.27 0.22 77 1006.5
20260506114519 63 213 3.0 8.0 0.00 0.27 0.22 74 1006.3
20260506114015 62 232 2.0 8.0 0.00 0.27 0.22 76 1006.4
20260506113514 62 196 3.0 11.0 0.00 0.27 0.22 74 1006.4
20260506113013 62 253 5.0 11.0 0.00 0.27 0.22 74 1006.3
20260506112512 62 185 4.0 12.0 0.00 0.27 0.22 73 1006.6
20260506112012 62 266 5.0 12.0 0.00 0.27 0.22 73 1006.3
20260506111510 62 184 4.0 8.0 0.00 0.27 0.22 75 1006.4
20260506111010 61 211 3.0 8.0 0.00 0.27 0.22 76 1006.3
20260506110610 61 249 3.0 8.0 0.00 0.27 0.22 77 1006.3
20260506110010 61 226 3.0 10.0 0.00 0.27 0.22 78 1006.5
20260506105509 60 239 5.0 12.0 0.00 0.27 0.22 78 1006.5
20260506105010 61 312 3.0 17.0 0.00 0.27 0.22 79 1006.4
20260506104513 61 255 2.0 14.0 0.00 0.27 0.22 78 1006.5
20260506104011 61 176 5.0 14.0 0.00 0.27 0.22 77 1006.4
20260506103506 61 182 1.0 7.0 0.00 0.27 0.22 82 1006.5
20260506103018 60 164 3.0 8.0 0.00 0.27 0.22 83 1006.4
20260506102507 60 207 3.0 7.0 0.00 0.27 0.22 82 1006.3
20260506102006 60 242 2.0 8.0 0.00 0.27 0.22 81 1006.3
20260506101505 60 210 3.0 8.0 0.00 0.27 0.22 81 1006.4
20260506101002 59 227 4.0 8.0 0.00 0.27 0.22 81 1006.4
20260506100502 59 155 3.0 9.0 0.00 0.27 0.22 83 1006.4
20260506100002 59 178 5.0 9.0 0.00 0.27 0.22 83 1006.3
20260506095601 59 181 4.0 11.0 0.00 0.27 0.22 85 1006.5
20260506095059 59 141 4.0 10.0 0.00 0.27 0.22 86 1006.4
20260506094603 58 247 2.0 7.0 0.00 0.27 0.22 90 1006.3
20260506094057 58 215 2.0 5.0 0.00 0.27 0.22 90 1006.4
20260506093555 57 192 3.0 6.0 0.00 0.27 0.22 90 1006.4
20260506093054 56 245 2.0 7.0 0.00 0.27 0.22 92 1006.5
20260506092553 56 193 1.0 7.0 0.00 0.27 0.22 91 1006.4
20260506092052 56 167 2.0 10.0 0.00 0.27 0.22 90 1006.3
20260506091552 56 254 3.0 10.0 0.00 0.27 0.22 91 1006.5
20260506091051 56 194 2.0 9.0 0.00 0.27 0.22 93 1006.4
20260506090549 55 268 3.0 9.0 0.00 0.27 0.22 93 1006.4
20260506090049 55 118 2.0 7.0 0.00 0.27 0.22 93 1006.3
20260506085548 55 221 1.0 6.0 0.00 0.27 0.22 93 1006.3
20260506085048 55 175 3.0 7.0 0.00 0.27 0.22 93 1006.5
20260506084615 54 211 2.0 8.0 0.00 0.27 0.22 93 1006.3
20260506084047 54 275 3.0 8.0 0.00 0.27 0.22 94 1006.3
20260506083545 54 193 4.0 8.0 0.00 0.27 0.22 94 1006.2
20260506083046 54 188 2.0 5.0 0.00 0.27 0.22 95 1006.2
20260506082544 54 193 0.0 6.0 0.00 0.27 0.22 96 1006.1
20260506082044 54 242 3.0 6.0 0.00 0.27 0.22 96 1006.0
20260506081552 54 176 1.0 7.0 0.00 0.27 0.22 96 1006.1
20260506081043 53 176 2.0 8.0 0.00 0.27 0.22 96 1006.1
20260506080543 53 117 3.0 8.0 0.00 0.27 0.22 96 1006.2
20260506073040 53 146 4.0 9.0 0.00 0.27 0.22 97 1006.0
20260506072539 53 183 3.0 9.0 0.00 0.27 0.22 97 1005.9
20260506072039 53 182 1.0 7.0 0.00 0.27 0.22 98 1005.9
20260506071539 53 266 3.0 7.0 0.00 0.27 0.22 98 1005.8
20260506071038 52 246 1.0 6.0 0.00 0.27 0.22 98 1005.9
20260506070538 52 207 2.0 5.0 0.00 0.27 0.22 99 1005.8
20260506062034 50 206 2.0 7.0 0.00 0.27 0.22 99 1006.0
20260506061534 50 196 1.0 5.0 0.00 0.27 0.22 99 1006.2
20260506061034 50 161 1.0 6.0 0.00 0.27 0.22 99 1006.1
20260506060533 50 183 2.0 6.0 0.00 0.27 0.22 99 1006.2
20260506051029 50 168 1.0 5.0 0.00 0.27 0.22 99 1005.9
20260506050529 50 198 2.0 7.0 0.00 0.27 0.22 99 1005.9
20260506045027 49 160 2.0 8.0 0.00 0.27 0.22 99 1005.6
20260506044534 49 185 3.0 8.0 0.00 0.27 0.22 99 1005.6
20260506044028 49 196 1.0 4.0 0.00 0.27 0.22 99 1005.5
20260506043531 49 207 0.0 3.0 0.00 0.27 0.22 99 1005.4
20260506043026 49 245 0.0 4.0 0.00 0.27 0.22 99 1005.4
20260506042525 49 245 1.0 4.0 0.00 0.27 0.22 99 1005.2
20260506042024 49 236 2.0 4.0 0.00 0.27 0.22 99 1005.2
20260506041524 49 243 1.0 4.0 0.00 0.27 0.22 99 1005.2
20260506041024 49 241 2.0 4.0 0.00 0.27 0.22 99 1005.3
20260506040526 49 210 0.0 2.0 0.00 0.27 0.22 99 1005.3
20260506040029 49 210 0.0 3.0 0.00 0.27 0.22 99 1005.3
20260506035523 49 209 0.0 6.0 0.00 0.27 0.22 99 1005.1
20260506035022 49 244 1.0 6.0 0.00 0.27 0.22 99 1005.2
20260506034522 49 230 1.0 5.0 0.00 0.27 0.22 99 1005.3
20260506034021 49 252 2.0 5.0 0.00 0.27 0.22 99 1005.3
20260506033521 49 246 1.0 5.0 0.00 0.27 0.22 99 1005.2
20260506033021 49 236 0.0 5.0 0.00 0.27 0.22 99 1005.2
20260506032521 49 239 1.0 5.0 0.00 0.27 0.22 99 1005.2
20260506032020 49 234 1.0 4.0 0.00 0.27 0.22 99 1005.4
20260506031520 49 200 1.0 7.0 0.00 0.27 0.22 98 1005.3
20260506031020 49 237 3.0 7.0 0.00 0.27 0.22 99 1005.5
20260506030520 49 223 0.0 5.0 0.00 0.27 0.22 99 1005.3
20260506030021 49 202 1.0 3.0 0.00 0.27 0.22 98 1005.3
20260506025518 49 201 0.0 4.0 0.00 0.27 0.22 98 1005.4
20260506025018 50 202 1.0 4.0 0.00 0.27 0.22 98 1005.4
20260506024518 50 223 0.0 4.0 0.00 0.27 0.22 98 1005.4
20260506024017 50 223 1.0 6.0 0.00 0.27 0.22 98 1005.4
20260506023517 50 172 1.0 6.0 0.00 0.27 0.22 98 1005.4
20260506023029 50 169 3.0 6.0 0.00 0.27 0.22 98 1005.4
20260506022515 50 236 1.0 5.0 0.00 0.27 0.22 98 1005.4
20260506022021 50 191 1.0 5.0 0.00 0.27 0.22 98 1005.5
20260506021521 50 229 0.0 3.0 0.00 0.27 0.22 98 1005.6
20260506021018 50 232 1.0 3.0 0.00 0.27 0.22 98 1005.3
20260506020512 50 232 0.0 3.0 0.00 0.27 0.22 98 1005.5
20260506020014 50 190 0.0 3.0 0.00 0.27 0.22 98 1005.6
20260506015513 50 188 0.0 2.0 0.00 0.27 0.22 98 1005.5
20260506015013 50 188 0.0 3.0 0.00 0.27 0.22 98 1005.5
20260506014513 50 188 0.0 3.0 0.00 0.27 0.22 98 1005.5
20260506014013 50 184 0.0 0.0 0.00 0.27 0.22 98 1005.4
20260506013511 50 184 0.0 0.0 0.00 0.27 0.22 98 1005.5
20260506013014 50 184 0.0 0.0 0.00 0.27 0.22 98 1005.5
20260506012511 50 184 0.0 0.0 0.00 0.27 0.22 98 1005.6
20260506012012 50 184 0.0 0.0 0.01 0.27 0.22 98 1005.7
20260506011511 50 184 0.0 0.0 0.01 0.27 0.22 98 1005.6
20260506011010 50 184 0.0 0.0 0.01 0.27 0.22 98 1005.6
20260506010510 50 184 0.0 0.0 0.01 0.27 0.22 98 1005.6
20260506010013 50 184 0.0 1.0 0.01 0.27 0.22 98 1005.7
20260506005510 50 184 0.0 1.0 0.01 0.27 0.22 97 1005.8
20260506005011 50 139 0.0 0.0 0.01 0.27 0.22 97 1005.8
20260506004512 50 139 0.0 0.0 0.01 0.27 0.22 97 1005.8
20260506004013 50 111 0.0 0.0 0.02 0.27 0.22 97 1005.8
20260506003512 50 107 0.0 0.0 0.02 0.27 0.22 97 1005.7
20260506003013 50 84 0.0 0.0 0.02 0.27 0.22 97 1005.5
20260506002507 50 84 0.0 0.0 0.02 0.27 0.22 97 1005.3
20260506002007 50 84 0.0 0.0 0.02 0.26 0.21 97 1005.3
20260506001508 50 84 0.0 3.0 0.02 0.26 0.21 97 1005.1
20260506001007 50 84 1.0 3.0 0.03 0.26 0.21 97 1005.2
20260506000507 50 84 1.0 2.0 0.05 0.26 0.21 97 1005.0
20260506000006 51 84 0.0 3.0 0.06 0.26 0.21 97 1004.9
20260505235508 51 84 1.0 3.0 0.06 0.26 0.21 96 1005.1
20260505235006 51 80 1.0 3.0 0.07 0.26 0.21 96 1005.1
20260505234505 51 88 0.0 3.0 0.08 0.26 0.21 96 1005.2
20260505234004 51 92 1.0 4.0 0.09 0.25 0.20 96 1005.3
20260505233506 51 111 1.0 4.0 0.09 0.25 0.20 96 1005.4
20260505233003 51 101 0.0 3.0 0.10 0.24 0.20 96 1005.6
20260505232503 51 101 0.0 11.0 0.12 0.24 0.20 96 1005.7
20260505232001 51 72 0.0 11.0 0.13 0.24 0.19 96 1005.8
20260505231501 51 301 0.0 5.0 0.16 0.24 0.19 96 1005.8
20260505231101 51 5 1.0 7.0 0.17 0.23 0.18 96 1006.0
20260505230659 51 223 1.0 7.0 0.17 0.22 0.17 96 1006.2
20260505230058 51 251 1.0 7.0 0.16 0.20 0.16 96 1006.5
20260505225603 51 274 1.0 4.0 0.15 0.20 0.15 96 1006.8
20260505225056 51 80 1.0 4.0 0.15 0.19 0.14 96 1006.8
20260505224559 52 70 0.0 6.0 0.16 0.18 0.13 96 1007.0
20260505224055 52 70 1.0 10.0 0.16 0.17 0.12 96 1007.1
20260505223554 52 237 0.0 10.0 0.16 0.16 0.11 96 1007.4
20260505223057 52 246 2.0 7.0 0.14 0.14 0.09 96 1007.5
20260505222557 52 252 3.0 7.0 0.13 0.13 0.08 95 1007.6
20260505222052 52 238 1.0 9.0 0.10 0.10 0.06 95 1007.7
20260505221551 52 291 2.0 9.0 0.08 0.08 0.03 95 1007.6
20260505221052 53 256 2.0 8.0 0.06 0.06 0.01 95 1007.4
20260505220548 53 207 1.0 9.0 0.05 0.05 0.00 95 1007.0
20260505220051 53 266 2.0 10.0 0.05 0.05 0.00 94 1006.9
20260505215647 53 294 5.0 10.0 0.05 0.05 0.05 93 1006.9
20260505215045 54 225 2.0 12.0 0.03 0.03 0.03 93 1007.0
20260505214554 55 240 4.0 12.0 0.02 0.02 0.02 92 1006.8
20260505214044 56 199 4.0 13.0 0.01 0.01 0.01 92 1006.8
20260505213543 56 232 2.0 13.0 0.00 0.00 0.00 90 1006.8
20260505213043 56 178 1.0 6.0 0.00 0.00 0.00 89 1006.3
20260505212541 56 23 1.0 10.0 0.00 0.00 0.00 89 1005.7
20260505212040 56 5 3.0 10.0 0.00 0.00 0.00 89 1005.4
20260505211540 56 77 2.0 8.0 0.00 0.00 0.00 88 1005.2
20260505211043 56 336 2.0 8.0 0.00 0.00 0.00 88 1005.0
20260505210539 56 63 2.0 6.0 0.00 0.00 0.00 88 1005.0
20260505210043 57 75 3.0 11.0 0.00 0.00 0.00 88 1005.0
20260505205540 57 73 2.0 10.0 0.00 0.00 0.00 88 1005.1
20260505205038 57 71 2.0 10.0 0.00 0.00 0.00 88 1004.9
20260505204538 57 49 3.0 11.0 0.00 0.00 0.00 87 1004.8
20260505204040 57 69 3.0 11.0 0.00 0.00 0.00 87 1004.9
20260505203540 57 76 3.0 11.0 0.00 0.00 0.00 88 1005.1
20260505203054 57 96 3.0 9.0 0.00 0.00 0.00 87 1005.1
20260505202538 57 54 3.0 10.0 0.00 0.00 0.00 87 1005.2
20260505202037 57 61 3.0 12.0 0.00 0.00 0.00 87 1005.0
20260505201543 57 55 3.0 11.0 0.00 0.00 0.00 88 1004.8
20260505201036 57 69 4.0 11.0 0.00 0.00 0.00 88 1004.9
20260505200536 57 26 4.0 10.0 0.00 0.00 0.00 88 1004.9
20260505200041 57 83 4.0 11.0 0.00 0.00 0.00 88 1005.1
20260505195535 57 82 4.0 16.0 0.00 0.00 0.00 88 1005.2
20260505195035 57 103 4.0 16.0 0.00 0.00 0.00 88 1005.3
20260505194537 57 80 4.0 9.0 0.00 0.00 0.00 88 1005.2
20260505194035 57 136 3.0 12.0 0.00 0.00 0.00 88 1005.5
20260505193536 57 99 3.0 12.0 0.00 0.00 0.00 88 1005.5
20260505193035 58 85 3.0 8.0 0.00 0.00 0.00 87 1005.5
20260505192534 58 86 3.0 10.0 0.00 0.00 0.00 87 1005.5
20260505192037 58 91 2.0 10.0 0.00 0.00 0.00 87 1005.4
20260505191534 58 109 3.0 8.0 0.00 0.00 0.00 87 1005.2
20260505191035 58 93 3.0 8.0 0.00 0.00 0.00 87 1005.2
20260505190533 58 78 3.0 8.0 0.00 0.00 0.00 86 1005.1
20260505190037 58 93 3.0 8.0 0.00 0.00 0.00 86 1005.2
20260505185532 58 78 3.0 10.0 0.00 0.00 0.00 86 1005.2
20260505185032 59 93 3.0 10.0 0.00 0.00 0.00 86 1005.2
20260505184536 59 186 3.0 9.0 0.00 0.00 0.00 86 1005.2
20260505184034 59 90 2.0 10.0 0.00 0.00 0.00 85 1005.2
20260505183530 59 89 3.0 10.0 0.00 0.00 0.00 85 1005.3
20260505183030 59 82 3.0 9.0 0.00 0.00 0.00 85 1005.4
20260505182529 59 39 3.0 9.0 0.00 0.00 0.00 85 1005.4
20260505182028 59 88 2.0 11.0 0.00 0.00 0.00 84 1005.4
20260505181535 60 91 2.0 11.0 0.00 0.00 0.00 84 1005.5
20260505181028 60 82 4.0 10.0 0.00 0.00 0.00 84 1005.5
20260505180527 60 68 2.0 12.0 0.00 0.00 0.00 84 1005.6
20260505180027 60 95 2.0 10.0 0.00 0.00 0.00 84 1005.6
20260505175528 60 67 2.0 7.0 0.00 0.00 0.00 83 1005.7
20260505175026 61 67 2.0 8.0 0.00 0.00 0.00 83 1005.8
20260505174535 61 101 2.0 8.0 0.00 0.00 0.00 83 1005.9
20260505174026 61 57 2.0 7.0 0.00 0.00 0.00 83 1005.9
20260505173525 61 85 2.0 8.0 0.00 0.00 0.00 83 1006.0
20260505173025 61 94 2.0 9.0 0.00 0.00 0.00 83 1006.0
20260505172525 61 97 1.0 8.0 0.00 0.00 0.00 83 1006.0
20260505172024 61 28 2.0 8.0 0.00 0.00 0.00 82 1006.0
20260505171524 61 93 3.0 8.0 0.00 0.00 0.00 82 1006.1
20260505171025 61 67 1.0 5.0 0.00 0.00 0.00 82 1006.1
20260505170523 61 63 2.0 6.0 0.00 0.00 0.00 81 1006.2
20260505170024 62 80 2.0 10.0 0.00 0.00 0.00 81 1006.1
20260505165523 62 121 3.0 10.0 0.00 0.00 0.00 80 1006.0
20260505165023 62 85 2.0 9.0 0.00 0.00 0.00 79 1006.1
20260505164523 63 340 2.0 8.0 0.00 0.00 0.00 78 1005.9
20260505164024 63 89 2.0 11.0 0.00 0.00 0.00 77 1006.0
20260505163522 64 253 2.0 11.0 0.00 0.00 0.00 77 1006.0
20260505163029 64 22 3.0 11.0 0.00 0.00 0.00 76 1006.0
20260505162521 65 84 2.0 10.0 0.00 0.00 0.00 76 1006.1
20260505162021 65 33 3.0 10.0 0.00 0.00 0.00 75 1006.1
20260505161520 65 127 1.0 10.0 0.00 0.00 0.00 76 1006.2
20260505161020 65 71 2.0 10.0 0.00 0.00 0.00 75 1006.4
20260505160520 65 39 4.0 9.0 0.00 0.00 0.00 75 1006.2
20260505153021 66 81 2.0 9.0 0.00 0.00 0.00 74 1006.5
20260505152516 66 106 3.0 9.0 0.00 0.00 0.00 73 1006.4
20260505152017 66 88 1.0 12.0 0.00 0.00 0.00 74 1006.5
20260505151519 67 92 3.0 12.0 0.00 0.00 0.00 73 1006.6
20260505151015 67 82 3.0 12.0 0.00 0.00 0.00 72 1006.7
20260505150518 67 93 3.0 12.0 0.00 0.00 0.00 72 1006.7
20260505140512 67 94 3.0 11.0 0.00 0.00 0.00 68 1007.0